Location: Unspecified
(0.0000°N, 0.0000°E)
Time: 08:50:01
(UTC+00:00)

NOSS 7 (A) - Visible Passes

Search period start: 09 June 2023 00:00
Search period end: 19 June 2023 00:00
Orbit: 354 x 1661 km, 63.3° (Epoch: 06 June)

Date Brightness Start Highest point End Pass type
(mag) Time Alt. Az. Time Alt. Az. Time Alt. Az.
09 Jun 8.6 02:47:39 15° NE 02:49:38 18° ENE 02:53:59 10° ESE visible
09 Jun 6.9 04:33:44 17° WNW 04:37:40 37° WSW 04:44:34 10° S visible
10 Jun 7.9 03:27:46 29° SE 03:27:46 29° SE 03:31:34 10° SSE visible
10 Jun 8.1 05:13:20 13° WSW 05:13:44 13° WSW 05:16:46 10° SSW visible
11 Jun 8.5 04:05:07 17° S 04:05:07 17° S 04:06:52 10° S visible
